Total_Precipitation_Accumulation
1.79 1.93 2.08 2.17 2.05 1.77 1.63 1.52 1.39 1.19 1.03 0.90 0.73 0.57 0.63 0.70 0.82 0.66 0.51 0.51 0.36 0.22 0.16 0.17 0.16 0.13 0.14 0.14 0.15 0.16 0.16 0.13 0.10 0.08 0.08 0.08 0.07 0.07
1.64 1.74 1.78 1.86 2.05 1.98 1.76 1.66 1.50 1.30 1.13 0.96 0.87 0.72 0.77 0.77 0.87 0.68 0.64 0.69 0.50 0.34 0.22 0.19 0.17 0.13 0.10 0.09 0.07 0.06 0.06 0.06 0.06 0.06 0.06 0.07 0.07 0.08
1.31 1.39 1.51 1.78 2.09 2.10 2.04 1.88 1.69 1.49 1.21 1.06 0.85 0.71 0.87 0.92 0.89 0.78 0.72 0.65 0.51 0.44 0.34 0.25 0.20 0.16 0.13 0.09 0.06 0.04 0.04 0.04 0.03 0.03 0.05 0.07 0.09 0.10
1.06 1.15 1.28 1.58 1.95 2.16 2.23 2.11 1.92 1.73 1.54 1.37 1.06 0.77 0.80 1.03 1.14 1.06 0.86 0.72 0.64 0.61 0.53 0.40 0.30 0.22 0.17 0.12 0.09 0.07 0.05 0.04 0.03 0.03 0.05 0.07 0.08 0.10
1.07 1.10 1.12 1.29 1.50 1.74 1.92 2.01 1.98 1.94 1.85 1.60 1.33 1.07 0.92 0.96 1.14 1.13 1.01 0.95 0.83 0.80 0.81 0.71 0.58 0.45 0.34 0.25 0.20 0.14 0.10 0.08 0.06 0.06 0.06 0.07 0.08 0.10
0.87 0.94 1.00 1.02 1.15 1.33 1.47 1.65 1.84 2.02 2.06 1.89 1.63 1.35 1.21 1.02 1.03 1.11 1.16 1.10 1.02 0.88 0.84 0.81 0.80 0.70 0.56 0.44 0.35 0.27 0.23 0.20 0.17 0.15 0.14 0.13 0.12 0.12
0.80 0.79 0.85 0.86 0.89 1.03 1.09 1.31 1.63 1.87 1.95 1.96 1.84 1.56 1.33 1.13 0.90 0.91 1.07 1.23 1.23 1.13 1.11 0.96 0.87 0.78 0.72 0.65 0.58 0.49 0.41 0.36 0.30 0.27 0.25 0.23 0.22 0.22
0.79 0.78 0.79 0.72 0.70 0.73 0.83 0.97 1.24 1.43 1.55 1.58 1.57 1.43 1.27 1.13 1.03 0.99 0.98 0.99 1.06 1.02 0.99 1.05 0.98 0.89 0.88 0.81 0.84 0.84 0.72 0.62 0.55 0.49 0.45 0.41 0.39 0.38
0.80 0.82 0.79 0.72 0.75 0.75 0.73 0.72 0.80 0.97 1.15 1.32 1.34 1.24 1.29 1.19 1.08 1.00 0.98 0.92 0.84 0.89 0.91 0.96 0.96 0.93 0.92 0.92 0.95 0.89 0.82 0.72 0.64 0.59 0.55 0.50 0.45 0.41
0.79 0.74 0.78 0.80 0.83 0.86 0.77 0.79 0.74 0.76 0.83 0.87 1.01 1.21 1.32 1.42 1.35 1.22 1.19 1.11 1.02 0.97 0.90 0.90 0.86 0.82 0.78 0.77 0.80 0.71 0.64 0.59 0.57 0.55 0.51 0.45 0.40 0.37
0.81 0.79 0.85 0.86 0.99 0.99 0.88 0.92 0.88 0.84 0.81 0.92 1.02 1.11 1.18 1.26 1.33 1.28 1.22 1.15 1.07 0.98 0.86 0.79 0.75 0.72 0.69 0.62 0.60 0.59 0.50 0.44 0.39 0.36 0.35 0.33 0.31 0.29
0.95 0.93 1.09 1.02 0.97 0.90 0.86 1.00 0.98 0.82 0.72 0.76 0.81 0.88 0.90 0.97 1.07 1.05 1.08 1.10 1.03 0.94 0.75 0.65 0.68 0.66 0.67 0.59 0.51 0.46 0.41 0.39 0.35 0.30 0.26 0.24 0.23 0.19
1.02 0.98 0.91 1.00 0.92 0.83 0.83 0.89 1.02 0.88 0.78 0.79 0.77 0.77 0.79 0.80 0.84 0.88 0.92 0.93 0.93 0.86 0.70 0.63 0.62 0.58 0.50 0.46 0.45 0.42 0.35 0.30 0.28 0.27 0.26 0.23 0.20 0.16
0.99 0.89 0.80 1.00 0.93 0.82 0.75 0.77 0.89 0.93 0.88 0.88 0.85 0.77 0.73 0.70 0.68 0.71 0.76 0.79 0.79 0.77 0.70 0.61 0.58 0.53 0.45 0.40 0.39 0.39 0.37 0.33 0.28 0.25 0.23 0.26 0.23 0.21
0.86 0.87 0.87 0.89 0.79 0.71 0.81 0.82 0.82 0.85 0.92 0.93 0.80 0.64 0.58 0.57 0.61 0.70 0.79 0.83 0.84 0.76 0.70 0.65 0.59 0.57 0.50 0.41 0.35 0.34 0.35 0.33 0.29 0.25 0.23 0.23 0.23 0.22
0.66 0.70 0.73 0.69 0.67 0.67 0.72 0.81 0.83 0.86 0.87 0.82 0.70 0.55 0.52 0.53 0.56 0.59 0.68 0.78 0.90 0.89 0.84 0.83 0.76 0.67 0.62 0.53 0.42 0.37 0.35 0.33 0.32 0.30 0.27 0.23 0.21 0.20
0.71 0.65 0.68 0.67 0.65 0.63 0.65 0.67 0.69 0.67 0.67 0.65 0.62 0.61 0.60 0.57 0.53 0.51 0.54 0.54 0.57 0.61 0.68 0.75 0.82 0.82 0.74 0.66 0.58 0.48 0.42 0.38 0.34 0.34 0.30 0.25 0.22 0.20
0.95 0.98 0.98 0.92 0.82 0.71 0.60 0.52 0.48 0.49 0.52 0.56 0.57 0.55 0.53 0.54 0.53 0.50 0.52 0.52 0.49 0.45 0.46 0.51 0.62 0.77 0.84 0.78 0.64 0.54 0.49 0.43 0.39 0.37 0.34 0.29 0.25 0.25
1.02 1.03 1.01 0.87 0.72 0.64 0.52 0.38 0.32 0.33 0.39 0.40 0.43 0.46 0.44 0.43 0.45 0.45 0.43 0.47 0.48 0.43 0.42 0.43 0.47 0.54 0.61 0.58 0.54 0.48 0.46 0.46 0.46 0.44 0.40 0.36 0.30 0.30
0.72 0.71 0.64 0.55 0.47 0.38 0.34 0.29 0.22 0.24 0.30 0.30 0.33 0.34 0.33 0.34 0.36 0.40 0.38 0.37 0.40 0.37 0.35 0.35 0.34 0.33 0.34 0.37 0.38 0.36 0.37 0.40 0.42 0.38 0.34 0.34 0.32 0.33
0.39 0.32 0.26 0.22 0.20 0.17 0.17 0.17 0.16 0.17 0.20 0.23 0.24 0.26 0.26 0.27 0.30 0.32 0.33 0.33 0.32 0.32 0.31 0.28 0.26 0.30 0.33 0.37 0.38 0.31 0.29 0.35 0.36 0.32 0.31 0.33 0.34 0.33
0.16 0.14 0.11 0.08 0.09 0.08 0.08 0.09 0.09 0.12 0.14 0.16 0.16 0.19 0.21 0.21 0.23 0.25 0.27 0.28 0.26 0.23 0.22 0.23 0.24 0.27 0.29 0.30 0.31 0.28 0.26 0.30 0.39 0.48 0.42 0.36 0.30 0.26
0.09 0.09 0.07 0.07 0.06 0.06 0.08 0.10 0.11 0.12 0.13 0.15 0.16 0.16 0.18 0.20 0.20 0.21 0.22 0.23 0.24 0.23 0.19 0.19 0.22 0.24 0.26 0.25 0.26 0.29 0.31 0.31 0.33 0.40 0.47 0.53 0.42 0.28